DW3838 Weather Reports


Display with metric or nautical units.
time (UTC)temp
F
wind
direction
speed
MPH
gust
MPH
rain 1hr
in
rain 24hr
in
rain mn
in
humidity
%
barometer
mb
20260904034554 60 204 0.0 0.0 0.00 0.32 0.32 89 1012.3
20260904033052 60 204 0.0 3.0 0.00 0.32 0.32 89 1012.1
20260904031552 60 202 0.0 0.0 0.00 0.32 0.32 89 1012.0
20260904030052 60 202 0.0 3.0 0.00 0.32 0.32 89 1012.0
20260904024600 60 146 0.0 3.0 0.00 0.32 0.32 89 1012.0
20260904023052 61 360 0.0 4.0 0.00 0.32 0.32 90 1012.0
20260904021554 61 193 0.0 2.0 0.00 0.32 0.32 90 1012.1
20260904020048 60 194 0.0 6.0 0.00 0.32 0.32 90 1012.2
20260904014552 60 218 0.0 3.0 0.00 0.32 0.32 90 1012.4
20260904013106 60 180 0.0 3.0 0.00 0.32 0.32 90 1012.4
20260904011548 60 180 0.0 4.0 0.00 0.32 0.32 90 1012.4
20260904010045 61 200 0.0 4.0 0.00 0.32 0.32 90 1012.4
20260904004544 61 192 0.0 5.0 0.00 0.32 0.32 90 1012.4
20260904003044 61 207 0.0 3.0 0.00 0.32 0.32 91 1012.5
20260904001557 61 199 0.0 5.0 0.00 0.32 0.32 91 1012.6
20260904000041 61 147 0.0 6.0 0.00 0.32 0.32 90 1012.7
20260903234539 62 191 0.0 4.0 0.01 0.32 0.32 90 1013.0
20260903233043 62 169 1.0 4.0 0.01 0.32 0.32 89 1013.0
20260903231540 62 177 0.0 2.0 0.01 0.32 0.32 88 1013.2
20260903230036 63 327 1.0 5.0 0.01 0.32 0.32 86 1013.3
20260903224540 63 180 0.0 4.0 0.00 0.31 0.31 84 1013.4
20260903223033 64 203 2.0 7.0 0.00 0.31 0.31 81 1013.4
20260903221534 65 228 0.0 8.0 0.00 0.31 0.31 76 1013.4
20260903220033 66 175 3.0 9.0 0.00 0.31 0.31 76 1013.5
20260903214537 66 220 0.0 7.0 0.00 0.31 0.31 77 1013.5
20260903213042 66 123 0.0 5.0 0.00 0.31 0.31 76 1013.5
20260903211531 67 163 0.0 7.0 0.00 0.31 0.31 78 1013.5
20260903210030 67 172 1.0 9.0 0.00 0.31 0.31 77 1013.5
20260903204528 67 169 0.0 7.0 0.00 0.31 0.31 80 1013.6
20260903203024 66 216 3.0 7.0 0.00 0.31 0.31 81 1013.6
20260903201524 66 153 0.0 7.0 0.00 0.31 0.31 83 1013.7
20260903200021 66 147 1.0 7.0 0.00 0.31 0.31 86 1013.8
20260903194518 65 248 1.0 5.0 0.00 0.31 0.31 89 1014.0
20260903193017 62 55 0.0 2.0 0.00 0.31 0.31 90 1014.2
20260903191523 61 249 0.0 7.0 0.00 0.31 0.31 92 1014.3
20260903190014 62 143 0.0 4.0 0.00 0.31 0.31 93 1014.4
20260903184511 61 293 1.0 6.0 0.01 0.31 0.31 93 1014.5
20260903183020 61 221 0.0 8.0 0.02 0.31 0.31 93 1014.6
20260903181508 61 244 1.0 8.0 0.04 0.31 0.31 93 1014.6
20260903180015 60 219 3.0 13.0 0.05 0.31 0.31 93 1014.5
20260903174508 61 173 0.0 8.0 0.05 0.30 0.30 94 1014.4
20260903173009 61 197 0.0 8.0 0.06 0.28 0.28 94 1014.4
20260903171505 61 140 1.0 6.0 0.06 0.27 0.27 93 1014.3
20260903170005 60 195 1.0 8.0 0.06 0.26 0.26 94 1014.4
20260903164503 60 155 0.0 6.0 0.08 0.25 0.25 94 1014.2
20260903163003 60 205 0.0 8.0 0.06 0.23 0.23 93 1014.2
20260903161502 60 184 0.0 9.0 0.06 0.21 0.21 93 1014.4
20260903160106 60 140 0.0 4.0 0.07 0.20 0.20 93 1014.5
20260903154559 60 162 4.0 11.0 0.06 0.18 0.17 93 1014.4
20260903153054 60 200 0.0 7.0 0.08 0.18 0.17 93 1014.5
20260903151549 60 186 0.0 5.0 0.07 0.16 0.15 93 1014.7
20260903150048 59 180 2.0 7.0 0.06 0.14 0.13 93 1014.5
20260903144550 59 207 1.0 8.0 0.05 0.12 0.11 93 1014.5
20260903143046 59 188 0.0 7.0 0.05 0.10 0.09 93 1014.4
20260903141544 59 183 1.0 4.0 0.05 0.09 0.08 93 1014.2
20260903140044 59 200 1.0 7.0 0.04 0.08 0.07 93 1014.2
20260903134541 59 181 0.0 7.0 0.04 0.16 0.06 92 1014.2
20260903133048 59 194 0.0 5.0 0.02 0.14 0.04 92 1014.3
20260903131538 58 193 0.0 0.0 0.02 0.13 0.03 92 1014.3
20260903130037 58 193 0.0 1.0 0.02 0.13 0.03 92 1014.4
20260903124534 57 193 0.0 0.0 0.01 0.18 0.02 92 1014.6
20260903123034 57 193 0.0 0.0 0.02 0.18 0.02 91 1014.8
20260903121536 57 193 0.0 1.0 0.01 0.17 0.01 91 1015.0
20260903120041 57 193 0.0 0.0 0.01 0.17 0.01 91 1015.0
20260903114527 57 193 0.0 0.0 0.01 0.23 0.01 91 1015.0
20260903113026 57 193 0.0 0.0 0.00 0.22 0.00 91 1015.1
20260903111525 57 193 0.0 0.0 0.00 0.22 0.00 91 1015.2
20260903110023 57 193 0.0 0.0 0.00 0.22 0.00 91 1015.3
20260903104523 57 193 0.0 0.0 0.00 0.22 0.00 91 1015.4
20260903103021 57 193 0.0 0.0 0.00 0.22 0.00 91 1015.4
20260903101520 57 193 0.0 0.0 0.00 0.22 0.00 90 1015.5
20260903100018 57 193 0.0 0.0 0.00 0.22 0.00 90 1015.6
20260903094517 56 193 0.0 0.0 0.00 0.23 0.00 90 1015.7
20260903093015 56 193 0.0 0.0 0.00 0.23 0.00 91 1015.8
20260903091517 56 193 0.0 0.0 0.00 0.23 0.00 91 1016.1
20260903090011 56 193 0.0 0.0 0.00 0.23 0.00 91 1016.1
20260903084511 56 193 0.0 0.0 0.00 0.23 0.00 90 1016.2
20260903083010 56 193 0.0 0.0 0.00 0.23 0.00 90 1016.3
20260903081508 56 193 0.0 0.0 0.00 0.23 0.00 90 1016.4
20260903080008 56 193 0.0 0.0 0.00 0.23 0.00 91 1016.4
20260903074507 56 193 0.0 0.0 0.00 0.23 0.00 91 1016.4
20260903073004 56 193 0.0 0.0 0.00 0.23 0.00 91 1016.5
20260903071503 56 193 0.0 0.0 0.00 0.23 0.00 91 1016.6
20260903070005 56 193 0.0 0.0 0.00 0.23 0.00 91 1016.6
20260903064502 55 193 0.0 0.0 0.00 0.23 0.23 91 1016.6
20260903063000 55 193 0.0 0.0 0.00 0.23 0.23 91 1016.8
20260903061610 55 193 0.0 0.0 0.00 0.23 0.23 91 1016.9
20260903060059 55 193 0.0 0.0 0.00 0.23 0.23 91 1016.9
20260903054604 56 193 0.0 0.0 0.00 0.23 0.23 91 1016.8
20260903053058 56 193 0.0 0.0 0.00 0.23 0.23 91 1016.9
20260903051558 57 193 0.0 0.0 0.00 0.23 0.23 91 1017.0
20260903050057 57 193 0.0 0.0 0.00 0.23 0.23 90 1017.1
20260903044559 58 193 0.0 0.0 0.00 0.23 0.23 90 1017.1
20260903043056 58 193 0.0 0.0 0.00 0.23 0.23 90 1017.1
20260903041610 59 193 0.0 0.0 0.00 0.23 0.23 89 1017.0
20260903040056 59 193 0.0 0.0 0.00 0.23 0.23 89 1016.9